TIMESTAMP,CO2_1_1_1,H2O_1_1_1,TAU_1_1_1,TAU_SSITC_TEST_1_1_1,H_1_1_1,H_SSITC_TEST_1_1_1,LE_1_1_1,LE_SSITC_TEST_1_1_1,FC_1_1_1,FC_SSITC_TEST_1_1_1,WD_0_0_1,WS_0_0_1,WS_MAX_0_0_1,U_SIGMA_0_0_1,V_SIGMA_0_0_1,W_SIGMA_0_0_1,USTAR_0_0_1,MO_LENGTH_0_0_1,ZL_0_0_1,FETCH_MAX_0_0_1,FETCH_70_0_0_1,FETCH_80_0_0_1,FETCH_90_0_0_1,PA_0_0_1,RH_0_0_1,TA_0_0_1,VPD_0_0_1,T_SONIC_0_0_1,T_SONIC_SIGMA_0_0_1
[yyyymmddHHMMSS],[mmolCO2 mol-1],[mmolH2O mol-1],[kg m-1 s-2],[#],[W m-2],[#],[W m-2],[#],[umolCO2 m-2 s-1],[#],[Decimal degrees],[m s-1],[m s-1],[m s-1],[m s-1],[m s-1],[m s-1],[m],[#],[m],[m],[m],[m],[kPa],[%],[deg C],[hPa],[deg C],[deg C]
20191030003000,413.79545806678055,3.7338594572290007,5.44526474138089731E-002,0,-25.148965787247345,0,2.1296435107692977,1,0.54134389541478500,0,195.14961212803888,2.2047293823941723,4.3182676416057832,0.53213068559042787,0.47098078296292401,0.33020123985910521,0.21255546865858907,31.949827879189748,0.59468238989717659,88.025756582685773,160.93915740828413,192.60306698336953,241.11618475182024,94.507569059043988,59.435862068965520,-0.35517241379312736,2.4089884803690018,-0.76873213057911016,0.24335885980677879
20191030010000,414.21144930478192,3.7617722701008609,0.10174763586128970,0,-33.879550914690597,0,2.2783955144981660,0,0.50202486059356910,0,204.57548888321685,2.2888842248805825,4.5729421883294892,0.64419248265061713,0.55456167715015203,0.36770443864001912,0.29041607057642849,60.506763554803591,0.31401448174948043,103.67458793763021,189.55021206389924,226.84319204081956,283.98075824270035,94.540138996961801,60.628000000000000,-0.52066666666667061,2.3101461225446829,-0.93558432515465029,0.21532543736591797
20191030013000,414.74277492973295,3.7755920390274991,6.40994372289120373E-002,0,-23.684028379367792,0,1.4972197312154178,1,0.59260522013181938,0,201.97172145817217,2.1349528566123270,4.1470483900303332,0.51916669144515559,0.48687503320383790,0.32120675298034912,0.23031148023832529,43.178416695483641,0.44003466208586928,95.957657014659418,175.44120114782450,209.95830946594683,262.84288889201480,94.569746993055560,62.585333333333331,-0.90100000000001046,2.1351238847229728,-1.3097116385565641,0.18463477983948393
20191030020000,414.91523325831446,3.8377996070685279,0.10165599024978679,0,-34.338125266453758,0,1.0704176787664788,2,0.64149860536622938,0,214.01108991289061,2.3827914687789584,4.8351542203048918,0.63437584585654194,0.71653649387724150,0.38427105750753310,0.28994944219015645,59.441036098822664,0.31964449557056640,99.954553026878315,182.74880180276242,218.70364106265791,273.79100629229788,94.605334000868055,63.969000000000001,-0.97133333333334804,2.0456020519370335,-1.3669335522121742,0.22058807452459619
20191030023000,414.88542014856671,3.7291307320534299,0.25118577356193145,0,-32.021118578633832,0,9.4751058146011982,0,1.2288469923641976,0,234.10534090255396,2.6400586640416734,7.2397276498304759,0.92829332577140811,0.78975276299661024,0.53398477575199588,0.45577790724746303,247.62287524923704,7.67295831650292581E-002,110.31496095882953,201.69093178500333,241.37253276389808,302.16976871370412,94.629263897715589,61.810333333333332,-0.89133333333330711,2.1808928657132993,-1.2930350942347104,0.17902708011690560
20191030030000,414.58002311998132,3.3519433170349839,0.23790307003390218,0,-35.099550198644955,0,13.348402488519019,0,1.5761206132897072,0,237.47243609072629,2.3851448016228982,5.5464093665989260,0.81813023605498747,0.78631400906743698,0.53320049410963632,0.44324015680252332,207.81699143604502,9.14265954323912333E-002,108.00745805667806,197.47208053956598,236.32364533275253,295.84916077268753,94.667521480468764,56.600000000000001,-1.1393333333333544,2.4338143665032850,-1.6028661566840583,0.16602707481479034
20191030033000,414.28888569526407,3.1709074132342936,0.36172082489552893,0,-41.878012188997857,0,14.729012114601657,1,1.7965927668740456,0,249.27298088743811,2.6113527191844228,8.0125713970909729,1.1852369085129097,0.95221234933461052,0.65965143635553558,0.54612684259691757,325.87471125873628,5.83046162944337240E-002,107.65596749392036,196.82944368867962,235.55457315398345,294.88637366629331,94.699587827473948,54.775666666666666,-1.4446666666666488,2.4798912193478309,-1.9083173166910683,0.15975335175613117
20191030040000,413.58363587988430,2.9046382666199824,0.41767092524069155,0,-37.812024323457955,0,19.909261496658864,0,2.2304470740261273,0,255.22186699582619,3.3138871550630635,8.0711584056087791,1.2760066791843543,1.0361527127599242,0.72225712968672950,0.58634299768689679,446.74431440619895,4.25299201071071484E-002,105.97973375232321,193.76475380170803,231.88692209199732,290.29490975599424,94.729461320963551,51.511000000000003,-1.7970000000000255,2.5908176566935759,-2.2844378204345048,0.19239690324440889
20191030043000,413.63733223086905,2.8967201383334937,0.32983223050479737,0,-34.414026092171902,0,9.6069737270141271,1,1.5701867790447284,0,242.39015052927294,2.5504699877376078,6.3038868815081379,1.0310562866399353,0.82510566645728678,0.61012960022946028,0.52066539889845731,343.72002171793736,5.52775480026931054E-002,110.29712634307356,201.65832441934245,241.33351007523939,302.12091693810413,94.739540868489584,52.811000000000000,-2.1700000000000159,2.4528482273715584,-2.6585901523166058,0.14748577992585110
20191030050000,413.38145395436641,2.9059398055902133,0.34940671611291696,0,-33.309360606240972,0,8.8048403193498750,0,1.5747595253214002,0,242.95507154103510,2.8647031293100644,7.5558029362602213,1.1395753100290131,0.91671949558039456,0.68508227543095490,0.53568177633165992,386.75282249998367,4.91269847164484547E-002,102.84571747931683,188.03477251142840,225.02959794517429,281.71035364385682,94.744261493669086,53.774666666666668,-2.3706666666666365,2.3673274434225027,-2.8621020922920479,0.13748736102858555
20191030053000,413.27986709918179,2.8879487943830116,0.37548616254067319,0,-30.026850119676954,0,11.671311558117553,0,1.5822358960312988,0,252.42967489761926,2.9211666517856232,6.6332173937341325,1.0988161377327950,0.85537994107026916,0.67326654074909698,0.55507563904534651,477.31332256683902,3.98061380265357992E-002,107.29685892581270,196.17287869437533,234.76883254484059,293.90271966301901,94.738211832248268,54.427666666666667,-2.6179999999999950,2.2914622133832543,-3.1040444708929726,0.12403673336965489
20191030060000,413.44238810137693,2.9091189881394106,0.35073510899293786,0,-23.782048114661674,0,13.357135764301802,0,1.5078472008811079,0,245.83992744011010,2.2300506134215237,7.0145774004495376,1.0227212747124106,0.81339613472238725,0.59410882165029422,0.53618040281213908,543.22284315298100,3.49764378274668233E-002,115.34820703647057,210.89331088643365,252.38543022789281,315.95660950067190,94.749684157552082,55.905999999999999,-2.8786666666666747,2.1745871272273347,-3.3725287204317738,0.13088088576690046
20191030063000,413.22725805383470,2.8798797069248931,0.21746441521497392,0,-27.819464398762683,0,11.122127212935856,1,1.4364579297697644,1,248.47804157714475,2.3945908465969947,7.3984013063078704,1.0925326251475802,0.78187647063212229,0.54992568627778904,0.42205644367082640,226.51982316245804,8.38778687654782723E-002,101.32301949405405,185.25079495475396,221.69788784762432,277.53944795682673,94.765450293245465,55.901333333333334,-3.0110000000000241,2.1534963970409011,-3.5047498481632147,0.11941796587631709
20191030070000,413.22593598298215,2.8775112880539173,0.35253322692103334,0,-39.831889160123843,0,8.7114604047912110,1,1.4159355706192360,0,243.64241513228319,2.3131204533276479,6.5413871208360819,1.0524698005291704,0.80594518129776438,0.62194189488366269,0.53723290595293527,326.26189823834869,5.82354240645031190E-002,111.37433767667520,203.62781029610005,243.69048165600660,305.07156566880229,94.755399093098958,56.561666666666667,-3.1809999999999832,2.0945389261931440,-3.6796050991481479,0.12545201038681569
20191030073000,413.29763103700623,2.8599749046452088,0.27322664620447357,0,-32.530043657620055,0,9.6141919230638972,0,1.2774750445534406,0,254.29054441396414,2.4218025435082446,7.1001723011746360,1.1168055635964402,0.82212944221463635,0.57062328035329390,0.47272730139300190,272.20468182037774,6.98004158963647370E-002,107.71194266784921,196.93178415898765,235.67704855882133,295.03969833969012,94.767957593098956,57.188333333333333,-3.4086666666666474,2.0295273956761464,-3.9009494832356495,0.12197233480710107
20191030080000,413.46105649169107,2.8230365583642163,0.24755166803861325,0,-32.016745697313887,0,7.5294704377522468,0,1.0071283155948401,0,253.78707706096975,2.3692795369062836,5.6391920792177812,0.87456304519771000,0.71953453703208547,0.56789599537094571,0.44967360325064870,238.09157402765857,7.98012280677887903E-002,103.88617838072469,189.93706687718657,227.30615844822651,284.56033724718145,94.793866182291666,57.643333333333331,-3.6846666666666579,1.9669164224641906,-4.1883744778103278,0.13277323267118224
20191030083000,413.83526440254195,2.8631218960956284,0.23752144149091961,0,-22.350544655897234,0,4.4446459678672667,0,0.55543696455719194,0,253.24207336396492,2.1587085987632473,5.3519215387122703,0.87263658216553475,0.71374729561863748,0.56440368211019076,0.44024716946827142,320.05797192739141,5.93642454383556326E-002,102.64558802869450,187.66887204767622,224.59170854234534,281.16216807336178,94.792840908420132,59.697333333333333,-3.9636666666666542,1.8327815638861649,-4.4636051635741296,0.11417192171541723
20191030090000,413.99631733540639,2.8491918184125238,0.22509661274137613,0,-33.178069730244026,0,8.1004048843893983,0,1.3323847519846175,0,255.30887266108209,2.5634575685213754,5.4259952835262393,0.83843913434160589,0.67644746305114167,0.52985581857575614,0.42840526876705787,198.63422269711859,9.56532048808707985E-002,105.63615282960562,193.13657829546526,231.13515644928768,289.35378837907814,94.767195853732645,60.690666666666665,-4.2516666666666652,1.7493228472383124,-4.7512717776828595,0.13924786759068764
20191030093000,414.27642184104712,2.8239239500172326,0.27870101987543183,0,-30.224399651053304,0,3.2090078096859518,1,0.88747322858293975,0,255.47313759305308,2.1391663657029611,5.4669812768632475,0.87904531724072132,0.66430555946199688,0.54429292763392667,0.47629984796928376,299.70941757658477,6.33947379886550533E-002,112.53642150504318,205.75247016198438,246.23315686976869,308.25469331161531,94.791489878906262,61.883666666666670,-4.6246666666666556,1.6492021922438311,-5.1036077948675711,0.11748986142622929
20191030100000,414.51792849920270,2.8462700397078731,0.18099256496732014,0,-22.727108530416903,0,6.4887239988540584,1,0.83480976625134351,0,256.32117526002520,1.8507504498563174,4.9789589241871965,0.77407706240379937,0.55224680948534743,0.45317075754621294,0.38361119445277597,208.26484209328009,9.12299925855467181E-002,109.58684287693887,200.35969970995555,239.77938797148201,300.17534048303759,94.812658003038194,63.585333333333331,-4.8763333333333208,1.5458889364035804,-5.3601705525716170,0.12323365380173133
20191030103000,414.83859503942091,2.8776634449940732,5.85552411409053508E-002,0,-10.616404153985458,0,-0.59943605941524647,2,0.13301053791228068,1,242.71080577958580,1.5320325194320457,3.3870816859864301,0.53415716440007355,0.48015593582876215,0.27916061308814472,0.21811467991318775,81.954908417763193,0.23183480241534715,102.78257693345786,187.91933145595397,224.89144448582834,281.53740190664155,94.815754148654506,65.223666666666659,-5.0670000000000073,1.4551761331306989,-5.5403593563503364,0.13390267359173624
20191030110000,415.18518864801223,2.9338968985739866,2.61953684637718578E-002,0,-8.2121568369756641,0,-0.25732812379044817,1,0.19419848402975595,0,213.06784275671083,1.8587925197780997,3.3732670855500642,0.39749973967097763,0.29988726964998480,0.18146059243930998,0.14582192197229607,31.665419277603949,0.60002363567117400,219.44296841580390,2152.0000000000000,4015.0000000000000,-9999.,94.838157065104170,67.421333333333337,-5.2456666666666933,1.3448702992192636,-5.7325706058078367,0.23755792044112636
20191030113000,415.35225998553852,2.9851169948926950,6.56073409160966292E-002,0,-12.659493783372881,0,0.59119836208270637,0,0.30411530059134129,0,251.67819538801371,1.9162328536078190,4.0072728478585811,0.52454425050092357,0.47397812260399447,0.31210997386699768,0.23071365907567304,81.346338531336499,0.23356920966615796,98.325786190825440,179.77089655791883,215.13984905219212,269.32956159013889,94.825223933005205,69.542000000000002,-5.4273333333333085,1.2400977482590936,-5.8712602060631980,0.14630841779311046
20191030120000,416.03817090593185,3.0701984199257311,4.67202264242568693E-002,1,-10.485863187599961,0,0.80426566514478492,1,0.41416980336093223,0,241.12990903457541,1.8409291099641079,3.8459115343755572,0.39528733380359171,0.47464778280263803,0.25328020701270920,0.19462786990391939,58.958834818909629,0.32225874304263230,126.07853365333393,1150.0000000000000,2102.0000000000000,5634.0000000000000,94.824780448784722,72.554000000000002,-5.6153333333333535,1.1015962967805792,-6.0593211169772303,0.14747989142992282
20191030123000,415.55510818519070,3.0328933928606663,5.59686448152493660E-002,0,-11.267375361785687,0,1.4758343804821343,2,0.71024979228726615,1,240.12706048088140,1.8818360002055412,4.1632584319524959,0.50915693741676904,0.44448757056326743,0.31687691873940760,0.21300359368785840,71.912674999639833,0.26420933444758049,91.128025261258671,166.61109397056342,199.39092641560657,249.61377928427891,94.804125190104173,72.212000000000003,-5.7166666666666401,1.1067480771071831,-6.1781162228054427,0.16156402994392219
20191030130000,415.06831689406539,2.9498811432989265,3.48736656013852869E-002,0,-9.9982947694939988,0,3.1841987108311365,1,0.80493895558522222,1,227.76441115334387,1.9109080463665233,3.4382601234487211,0.40439483314083446,0.38969696650946245,0.24395169202197070,0.16805610915223473,39.807797303846499,0.47729342708856920,176.54845990224064,1695.0000000000000,3143.0000000000000,8640.0000000000000,94.825621627821178,71.267666666666670,-5.9049999999999727,1.1280414328499495,-6.3740132683647630,0.16846016208333675
20191030133000,415.11635031080124,2.9426464516511306,4.07074774777219303E-002,0,-7.3061657724903535,0,-4.44138720750861318E-002,2,0.27643579319486428,0,217.29920155807292,1.8676956665394127,3.3760681312456478,0.44883883155088911,0.43118611301073989,0.25860207974654503,0.18158756929599890,68.730002986256025,0.27644404444154380,142.67208146829472,1305.0000000000000,2387.0000000000000,6406.0000000000000,94.839826767843007,70.593666666666664,-5.8106666666666911,1.1628413148978280,-6.3091038260792516,0.11862829412846444
20191030140000,416.01188974484882,3.0928286905987625,0.12774788098136480,0,10.827514915136705,1,3.5982393794218162,1,1.1113547155178360,0,211.72916708646878,1.8229860781507452,4.7990406188420316,0.67476267008727231,0.60842241775553652,0.43798181027673849,0.32189666154249263,-258.30795713481427,-7.35556124973868047E-002,97.873071645010270,178.94318998226981,214.14929568034941,268.08950631193096,94.817816042100688,72.610333333333330,-5.5299999999999727,1.1064979382413840,-6.0127162831624332,0.20015549327909976
20191030143000,415.79811582368467,3.1329363691254124,0.27441305676383365,0,26.041881994963866,0,13.048435323073161,0,2.2621885148654783,0,215.39892578209876,2.0214773386269691,5.7709852084586872,0.93631570407190279,0.82861871128780917,0.58375377096873238,0.47226841625178689,-339.15049764227052,-5.60223267607905390E-002,105.68716843293691,193.22985108894702,231.24678016088151,289.49352802024214,94.810414535156255,70.665666666666667,-5.0036666666666747,1.2333656849814316,-5.5148337512546277,0.15999679994974358
20191030150000,415.16964645978936,3.1088432777905282,0.49684953227676770,0,74.455916611368508,0,17.531877115848854,1,1.2559687974741105,0,236.38350020121422,2.3364185339362646,6.2765979090675890,1.2503189722410906,0.90418372632863020,0.68674682195049130,0.63596576214037470,-289.64897020411485,-6.55966426761702276E-002,117.75098849592391,215.28636172215607,257.64279007741345,322.53820017125702,94.801764088936707,68.069666666666663,-4.6120000000000232,1.3828706383574514,-5.1347811583234488,0.21472873772173487
20191030153000,414.61621044422299,3.1000040105836515,0.52138227908432788,0,79.221231746987783,0,13.594711831860220,0,1.2439011210495110,0,227.39427982762720,2.5771689099407622,6.5952571072290187,1.2154040554049086,1.2058168149628379,0.77136342017740533,0.65197393018784378,-293.25981166338869,-6.47889661124405880E-002,109.45405413557543,200.11691953994628,239.48884211490153,299.81161154802442,94.781094496744785,66.085999999999999,-4.2603333333333353,1.5082384362018468,-4.8556788669161506,0.30248921829178332
20191030160000,414.66602017291387,3.1387671049398458,0.70086895377477210,1,200.54692417887674,0,10.173760764373945,1,-0.61504285144304849,2,237.86832681912696,2.0040074175666875,5.9432387351413638,1.1965224451062280,1.0278263110420787,0.79117266349486814,0.75659199918779740,-181.01740567696359,-0.10496228210179212,120.81678557583449,220.89161657006088,264.35084852829169,330.93589334458341,94.763638348307282,64.766666666666666,-3.8290000000000077,1.6185252724239581,-4.4346684214274319,0.36245565853001344
20191030163000,414.20353786491216,3.0105930063333024,0.76960916741979990,0,201.01066684568599,0,60.378401899327180,1,2.2021596665450121,1,221.48880371334590,1.9454081599048505,6.2160533451417503,1.3385887099027156,1.1573247928566028,0.87152110156776352,0.79381498147494278,-208.54963696580015,-9.11054091315238873E-002,116.20050276103345,212.45157929671404,254.25027952769324,318.29117953295389,94.740804392328315,59.293666666666667,-3.2093333333333476,1.9586609845762859,-3.8267275161988437,0.35750763922009093
20191030170000,413.97616074442789,3.0130205365071805,0.41877882553651258,1,178.61957617364328,0,27.085800813852728,0,1.4890526000426529,0,247.78873153414969,2.1747181364604291,6.1282884511311266,1.2478022815939729,1.2625794945974755,0.73482732399350614,0.58582590747370578,-94.310663864035362,-0.20146184133950840,104.45314517283785,190.97366299795334,228.54669925444094,286.11334712863464,94.714064707031255,58.610999999999997,-3.0470000000000255,2.0157601179789104,-3.7368568352592888,0.35290152406584724
20191030173000,413.90097209710666,3.0521648027706005,0.57550986232844337,1,151.65583799536094,0,11.164415271846076,1,0.27886793680105360,2,245.02297679473378,1.9867079650222521,6.2329864755378521,1.1298945736381070,1.0243806074016415,0.77873899561201931,0.68738001208797816,-179.40712352989271,-0.10590437896873270,113.31799486583276,207.18143553554614,247.94326345907325,310.39554383279454,94.689367621961807,57.546999999999997,-2.6306666666666843,2.1326096630197076,-3.2212686614989821,0.34208562222236066
20191030180000,413.75521197647367,3.0500684349421014,0.56730996510930776,0,165.90412267727751,1,24.024382725340107,1,0.31063136004113751,2,228.36973018608720,2.3503168788854811,6.4794165033104489,1.2474752621145127,1.0235028376768984,0.76698540400556248,0.68264216175569326,-160.60987168789993,-0.11829907962893559,114.07217092418908,208.56030990233847,249.59342390669644,312.46134889805671,94.671550354383683,57.116666666666667,-2.5413333333333412,2.1685589580589806,-3.0874350145127210,0.33177458784986580
20191030183000,413.58055996519863,3.0501533589583163,0.39383882811526183,0,120.38922515714481,0,13.835098289675743,0,0.31062668739944765,1,206.04908652257407,2.1876510270813845,6.3235641857497953,1.0909498590518834,1.1752880764097580,0.71995867118725865,0.56913084996222207,-128.22702213118450,-0.14817469581849743,103.74771690550277,189.68391514045834,227.00320047521856,284.18106981527637,94.634760267795158,56.125333333333330,-2.3100000000000023,2.2570632941802553,-2.9259062160915619,0.29249319578553057
20191030190000,413.59746688291807,3.1122668176092767,0.10797575977133742,1,80.463580337208441,1,13.037948376256741,1,0.33748541389596831,2,205.57154095889135,2.3724485608473693,6.5461386237692274,1.0209488651339773,1.4239623117675126,0.70416616982019198,0.29804701783875259,-27.548111570295895,-0.68970244844249118,62.942298645968023,115.07859634137098,137.71968833700586,172.40870738520405,94.604800460684871,57.277000000000001,-2.3163333333333185,2.1967870211155169,-2.8695313283371888,0.28661955090956176
20191030193000,412.88255498508772,2.9913999494536334,0.32172857965890317,0,103.94775543960655,0,13.296538754398018,0,0.45624769926116687,0,224.76024801964820,1.8150762448239164,5.7898338279423172,1.0826436148488734,1.3501331311407974,0.69871921470375542,0.51494419536539238,-109.95205626454383,-0.17280258910562019,98.089130370328647,179.33821424054796,214.62203882690500,268.68132463367607,94.576478771267375,53.342999999999996,-1.8936666666666611,2.4752181205380128,-2.4902167578802619,0.30981787354402723
20191030200000,413.01949170787071,2.9925549446713475,0.36901317539802181,0,132.54418566517811,0,12.153169235132005,0,-3.20284086882880598E-002,2,248.06021961981307,2.5100828659737013,7.3460352607808250,1.2949512036183735,1.0838515423780191,0.70544161348583789,0.55170250763217688,-106.01205347734545,-0.17922490298766131,102.86082572135747,188.06239519640533,225.06265524415952,281.75173745946449,94.534554832465275,52.985666666666667,-1.8033333333333417,2.5108517716380772,-2.4814238942464044,0.31393415974744110
20191030203000,413.06508885837434,3.0101731010046153,0.46329541000972002,0,131.93490899269125,0,17.458783311436342,0,-0.24144216940193197,2,248.05257962602963,2.3165529093491939,5.8272353767578711,1.1858727655935906,0.97962636746986576,0.65338831716787737,0.61830420648726858,-149.88517838468192,-0.12676370141973808,119.80627595824920,219.04408270360238,262.13982235687450,328.16795094787915,94.506931986583581,53.162999999999997,-1.7730000000000246,2.5069819330843326,-2.3772718870211520,0.28657677810253063
20191030210000,413.12349370198081,3.0401439593977235,0.38304326835442237,0,45.955750286043262,0,6.8783960865661919,0,0.32692156520516980,0,245.95464197396757,2.0334054481270445,5.5553641909831128,1.0326258214656332,0.98535158757736907,0.60177234335249186,0.56224473561902455,-323.51369237926883,-5.87301262591553436E-002,118.59037397188962,216.82102608048828,259.47939135559085,324.83740703249913,94.489429911241317,53.753666666666668,-1.7909999999999968,2.4720831161590091,-2.3311390355427761,0.16303180077399090
20191030213000,412.97370600594229,3.0520269044243782,0.24660351140192344,0,35.859989439758941,0,8.1003263097372393,0,0.43523543443793788,0,245.37768189516427,1.6020723021701442,5.2371206951517459,0.98358972740166839,0.85149507007500003,0.54838598241995373,0.45118214310551813,-214.19803657214561,-8.87029606062727377E-002,107.11920627908155,195.84807299674515,234.38012308130996,293.41610154062158,94.462881112847214,54.004333333333335,-1.8050000000000068,2.4561468723852422,-2.3143638559977262,0.12954401585988254
20191030220000,412.83833898787339,3.0191354838609965,0.15871499956229196,0,21.252966314446660,0,6.5553239093799851,0,0.27244336338642861,1,240.86653530722893,1.5792008983338166,4.0572617741851928,0.69721142019016857,0.76546083945705468,0.43036511603151301,0.36189874956979856,-186.47786275448735,-0.10188876963382502,109.00713278613465,199.29980477491489,238.51096443518193,298.58742473220224,94.438143926432303,54.043999999999997,-1.9653333333333194,2.4251648226642240,-2.4681240531073172,9.66182937216895910E-002
20191030223000,412.76659580349923,2.9743399360579748,0.19445690329273183,0,7.2559036846738385,0,6.7557270653103849,0,0.56843714458678041,1,262.05191450165808,1.9915220288553257,4.4802686921031842,0.79094608019385981,0.63572091201012915,0.44385697741502139,0.40052955625329972,-740.37061596515775,-2.56628229028664605E-002,115.33685749107114,210.87256029769165,252.36059707294297,315.92552133748404,94.424446252170142,53.643666666666668,-2.0690000000000168,2.4276280679152111,-2.5636747614541946,6.26346250039309660E-002